Location: Unspecified
(0.0000°N, 0.0000°E)
Time: 07:30:31
(UTC+00:00)

deb r/b Ablestar - Pass Details

Date: 17 February 2026
Orbit: 902 x 2195 km, 67.6° (Epoch: 14 March)

Event Time Altitude Azimuth Distance (km) Brightness Sun altitude
Rises 20:31:22 0° 224° (SW) 4,639 ? -33.5°
Reaches altitude 10° 20:35:26 10° 238° (WSW) 3,419 ? -34.5°
Maximum altitude 20:41:09 21° 284° (WNW) 2,348 ? -35.9°
Drops below altitude 10° 20:46:03 10° 332° (NNW) 2,847 ? -37.1°
Enters shadow 20:46:52 - 337° (NNW) 3,041 ? -37.3°
